Time,TemperatureF,DewpointF,PressureIn,WindDirection,WindDirectionDegrees,WindSpeedMPH,WindSpeedGustMPH,Humidity,HourlyPrecipIn,Conditions,Clouds,dailyrainin,SoftwareType,DateUTC
2013-01-10 00:00:00,29.5,21.2,30.39,South,180,0.7,2.0,71,0.00,,,0.00,WUHU216HW,2013-01-10 05:00:00,
2013-01-10 00:01:00,29.5,21.2,30.39,South,180,1.6,1.6,71,0.00,,,0.00,WUHU216HW,2013-01-10 05:01:00,
2013-01-10 00:06:00,29.2,21.2,30.39,SSE,158,0.7,1.8,72,0.00,,,0.00,WUHU216HW,2013-01-10 05:06:00,
2013-01-10 00:11:00,28.8,20.9,30.39,South,180,0.2,1.8,72,0.00,,,0.00,WUHU216HW,2013-01-10 05:11:00,
2013-01-10 00:16:00,28.6,20.8,30.40,South,180,0.7,1.3,72,0.00,,,0.00,WUHU216HW,2013-01-10 05:16:00,
2013-01-10 00:21:00,28.4,20.6,30.40,SSE,158,0.9,1.3,72,0.00,,,0.00,WUHU216HW,2013-01-10 05:21:00,
2013-01-10 00:26:00,28.1,20.3,30.41,South,180,0.4,1.1,72,0.00,,,0.00,WUHU216HW,2013-01-10 05:26:00,
2013-01-10 00:31:00,27.9,20.3,30.41,SSE,158,0.7,0.9,73,0.00,,,0.00,WUHU216HW,2013-01-10 05:31:00,
2013-01-10 00:36:00,27.7,20.2,30.42,SSW,203,1.8,1.8,73,0.00,,,0.00,WUHU216HW,2013-01-10 05:36:00,
2013-01-10 00:41:00,27.4,20.4,30.42,East,90,0.4,1.8,75,0.00,,,0.00,WUHU216HW,2013-01-10 05:41:00,
2013-01-10 00:46:00,27.2,20.0,30.42,SE,135,2.0,2.0,74,0.00,,,0.00,WUHU216HW,2013-01-10 05:46:00,
2013-01-10 00:51:00,27.0,19.8,30.42,SE,135,0.4,2.0,74,0.00,,,0.00,WUHU216HW,2013-01-10 05:51:00,
2013-01-10 00:56:00,26.8,19.6,30.43,South,180,1.1,2.0,74,0.00,,,0.00,WUHU216HW,2013-01-10 05:56:00,
2013-01-10 01:01:00,26.6,19.7,30.43,SW,225,2.0,2.2,75,0.00,,,0.00,WUHU216HW,2013-01-10 06:01:00,
2013-01-10 01:06:00,26.6,19.7,30.43,SSW,203,1.3,2.2,75,0.00,,,0.00,WUHU216HW,2013-01-10 06:06:00,
2013-01-10 01:11:00,26.5,19.5,30.44,SSW,203,2.0,2.5,75,0.00,,,0.00,WUHU216HW,2013-01-10 06:11:00,
2013-01-10 01:16:00,26.6,19.7,30.44,SSW,203,1.8,2.5,75,0.00,,,0.00,WUHU216HW,2013-01-10 06:16:00,
2013-01-10 01:21:00,26.6,19.7,30.44,SW,225,1.8,2.5,75,0.00,,,0.00,WUHU216HW,2013-01-10 06:21:00,
2013-01-10 01:26:00,26.6,20.0,30.44,SSW,203,1.1,2.7,76,0.00,,,0.00,WUHU216HW,2013-01-10 06:26:00,
2013-01-10 01:31:00,26.5,19.9,30.44,SW,225,0.9,2.7,76,0.00,,,0.00,WUHU216HW,2013-01-10 06:31:00,
2013-01-10 01:36:00,26.5,20.2,30.45,SSW,203,1.8,2.2,77,0.00,,,0.00,WUHU216HW,2013-01-10 06:36:00,
2013-01-10 01:41:00,26.6,20.0,30.46,SW,225,1.1,1.8,76,0.00,,,0.00,WUHU216HW,2013-01-10 06:41:00,
2013-01-10 01:46:00,26.5,20.2,30.46,SSW,203,0.9,1.8,77,0.00,,,0.00,WUHU216HW,2013-01-10 06:46:00,
2013-01-10 01:51:00,26.5,20.4,30.46,SSW,203,0.9,1.1,78,0.00,,,0.00,WUHU216HW,2013-01-10 06:51:00,
2013-01-10 01:56:00,26.5,20.2,30.46,SSW,203,0.7,1.1,77,0.00,,,0.00,WUHU216HW,2013-01-10 06:56:00,
2013-01-10 02:01:00,26.3,20.0,30.46,SSW,203,0.2,0.9,77,0.00,,,0.00,WUHU216HW,2013-01-10 07:01:00,
2013-01-10 02:06:00,26.3,20.0,30.47,SSW,203,0.0,0.9,77,0.00,,,0.00,WUHU216HW,2013-01-10 07:06:00,
2013-01-10 02:11:00,26.1,19.8,30.47,SSW,203,0.0,0.2,77,0.00,,,0.00,WUHU216HW,2013-01-10 07:11:00,
2013-01-10 02:16:00,25.7,19.5,30.47,SSW,203,0.0,0.0,77,0.00,,,0.00,WUHU216HW,2013-01-10 07:16:00,
2013-01-10 02:21:00,25.6,19.4,30.47,South,180,0.4,0.9,77,0.00,,,0.00,WUHU216HW,2013-01-10 07:21:00,
2013-01-10 02:26:00,25.4,19.2,30.48,South,180,0.0,0.9,77,0.00,,,0.00,WUHU216HW,2013-01-10 07:26:00,
2013-01-10 02:31:00,25.0,18.8,30.48,South,180,0.0,0.4,77,0.00,,,0.00,WUHU216HW,2013-01-10 07:31:00,
2013-01-10 02:36:00,24.8,18.6,30.48,South,180,0.0,0.0,77,0.00,,,0.00,WUHU216HW,2013-01-10 07:36:00,
2013-01-10 02:41:00,24.7,18.5,30.48,South,180,0.0,0.0,77,0.00,,,0.00,WUHU216HW,2013-01-10 07:41:00,
2013-01-10 02:46:00,24.5,18.6,30.48,South,180,0.0,0.0,78,0.00,,,0.00,WUHU216HW,2013-01-10 07:46:00,
2013-01-10 02:51:00,24.3,18.7,30.48,SE,135,0.4,0.7,79,0.00,,,0.00,WUHU216HW,2013-01-10 07:51:00,
2013-01-10 02:56:00,24.1,18.3,30.48,SE,135,0.0,0.7,78,0.00,,,0.00,WUHU216HW,2013-01-10 07:56:00,
2013-01-10 03:01:00,24.1,18.3,30.48,SE,135,0.2,0.4,78,0.00,,,0.00,WUHU216HW,2013-01-10 08:01:00,
2013-01-10 03:06:00,23.8,17.9,30.48,East,90,0.7,0.7,78,0.00,,,0.00,WUHU216HW,2013-01-10 08:06:00,
2013-01-10 03:11:00,23.8,17.9,30.48,East,90,0.0,0.7,78,0.00,,,0.00,WUHU216HW,2013-01-10 08:11:00,
2013-01-10 03:16:00,23.6,17.7,30.48,East,90,0.0,0.7,78,0.00,,,0.00,WUHU216HW,2013-01-10 08:16:00,
2013-01-10 03:21:00,23.4,17.6,30.48,East,90,0.0,0.4,78,0.00,,,0.00,WUHU216HW,2013-01-10 08:21:00,
2013-01-10 03:26:00,23.2,17.4,30.48,East,90,0.0,0.0,78,0.00,,,0.00,WUHU216HW,2013-01-10 08:26:00,
2013-01-10 03:31:00,23.0,17.2,30.48,East,90,0.0,0.0,78,0.00,,,0.00,WUHU216HW,2013-01-10 08:31:00,
2013-01-10 03:36:00,22.7,16.8,30.48,East,90,0.0,0.0,78,0.00,,,0.00,WUHU216HW,2013-01-10 08:36:00,
2013-01-10 03:41:00,22.7,16.8,30.47,East,90,0.0,0.0,78,0.00,,,0.00,WUHU216HW,2013-01-10 08:41:00,
2013-01-10 03:46:00,22.5,16.7,30.47,East,90,0.0,0.0,78,0.00,,,0.00,WUHU216HW,2013-01-10 08:46:00,
2013-01-10 03:51:00,22.3,16.8,30.47,East,90,0.0,0.0,79,0.00,,,0.00,WUHU216HW,2013-01-10 08:51:00,
2013-01-10 03:56:00,22.3,16.8,30.47,East,90,0.0,0.0,79,0.00,,,0.00,WUHU216HW,2013-01-10 08:56:00,
2013-01-10 04:01:00,22.0,16.5,30.47,SE,135,0.4,0.9,79,0.00,,,0.00,WUHU216HW,2013-01-10 09:01:00,
2013-01-10 04:06:00,22.0,16.7,30.47,SE,135,0.0,0.9,80,0.00,,,0.00,WUHU216HW,2013-01-10 09:06:00,
2013-01-10 04:11:00,21.8,16.3,30.47,SSE,158,0.0,0.4,79,0.00,,,0.00,WUHU216HW,2013-01-10 09:11:00,
2013-01-10 04:16:00,21.8,16.6,30.47,SSE,158,0.0,0.0,80,0.00,,,0.00,WUHU216HW,2013-01-10 09:16:00,
2013-01-10 04:21:00,21.6,16.4,30.47,SSE,158,0.0,0.0,80,0.00,,,0.00,WUHU216HW,2013-01-10 09:21:00,
2013-01-10 04:26:00,21.4,16.2,30.46,South,180,0.0,0.0,80,0.00,,,0.00,WUHU216HW,2013-01-10 09:26:00,
2013-01-10 04:31:00,21.2,16.0,30.47,SSW,203,0.7,0.7,80,0.00,,,0.00,WUHU216HW,2013-01-10 09:31:00,
2013-01-10 04:36:00,21.2,16.0,30.47,South,180,0.0,0.9,80,0.00,,,0.00,WUHU216HW,2013-01-10 09:36:00,
2013-01-10 04:41:00,21.2,16.0,30.47,SSE,158,0.4,0.9,80,0.00,,,0.00,WUHU216HW,2013-01-10 09:41:00,
2013-01-10 04:46:00,21.1,15.8,30.47,ESE,113,0.7,0.9,80,0.00,,,0.00,WUHU216HW,2013-01-10 09:46:00,
2013-01-10 04:51:00,21.1,16.1,30.47,ESE,113,0.4,0.9,81,0.00,,,0.00,WUHU216HW,2013-01-10 09:51:00,
2013-01-10 04:56:00,21.1,16.1,30.47,ESE,113,0.4,0.7,81,0.00,,,0.00,WUHU216HW,2013-01-10 09:56:00,
2013-01-10 05:01:00,20.9,15.9,30.46,ESE,113,0.0,0.7,81,0.00,,,0.00,WUHU216HW,2013-01-10 10:01:00,
2013-01-10 05:06:00,20.9,15.9,30.47,ESE,113,0.0,0.4,81,0.00,,,0.00,WUHU216HW,2013-01-10 10:06:00,
2013-01-10 05:11:00,20.7,15.8,30.47,ESE,113,0.0,0.0,81,0.00,,,0.00,WUHU216HW,2013-01-10 10:11:00,
2013-01-10 05:16:00,20.5,15.6,30.46,ESE,113,0.0,0.0,81,0.00,,,0.00,WUHU216HW,2013-01-10 10:16:00,
2013-01-10 05:21:00,20.5,15.6,30.46,ESE,113,0.0,0.0,81,0.00,,,0.00,WUHU216HW,2013-01-10 10:21:00,
2013-01-10 05:26:00,20.3,15.4,30.47,ESE,113,0.0,0.0,81,0.00,,,0.00,WUHU216HW,2013-01-10 10:26:00,
2013-01-10 05:31:00,20.2,15.2,30.46,ESE,113,0.0,0.0,81,0.00,,,0.00,WUHU216HW,2013-01-10 10:31:00,
2013-01-10 05:36:00,20.0,15.0,30.46,ESE,113,0.0,0.0,81,0.00,,,0.00,WUHU216HW,2013-01-10 10:36:00,
2013-01-10 05:41:00,20.0,15.0,30.46,ESE,113,0.0,0.4,81,0.00,,,0.00,WUHU216HW,2013-01-10 10:41:00,
2013-01-10 05:46:00,19.8,14.9,30.46,ESE,113,0.0,0.4,81,0.00,,,0.00,WUHU216HW,2013-01-10 10:46:00,
2013-01-10 05:51:00,19.8,14.9,30.47,ESE,113,0.7,0.7,81,0.00,,,0.00,WUHU216HW,2013-01-10 10:51:00,
2013-01-10 05:56:00,19.6,14.9,30.47,ESE,113,0.0,0.7,82,0.00,,,0.00,WUHU216HW,2013-01-10 10:56:00,
2013-01-10 06:01:00,19.6,14.9,30.47,ESE,113,0.0,0.4,82,0.00,,,0.00,WUHU216HW,2013-01-10 11:01:00,
2013-01-10 06:06:00,19.6,14.9,30.47,ESE,113,0.0,0.0,82,0.00,,,0.00,WUHU216HW,2013-01-10 11:06:00,
2013-01-10 06:11:00,19.6,14.9,30.47,ESE,113,0.2,0.7,82,0.00,,,0.00,WUHU216HW,2013-01-10 11:11:00,
2013-01-10 06:16:00,19.8,15.1,30.48,ESE,113,0.0,0.7,82,0.00,,,0.00,WUHU216HW,2013-01-10 11:16:00,
2013-01-10 06:21:00,19.8,15.1,30.48,ESE,113,0.4,0.7,82,0.00,,,0.00,WUHU216HW,2013-01-10 11:21:00,
2013-01-10 06:26:00,19.8,15.1,30.48,ESE,113,0.0,0.7,82,0.00,,,0.00,WUHU216HW,2013-01-10 11:26:00,
2013-01-10 06:31:00,19.6,14.9,30.48,ESE,113,0.0,0.4,82,0.00,,,0.00,WUHU216HW,2013-01-10 11:31:00,
2013-01-10 06:36:00,19.6,15.2,30.48,East,90,0.0,0.7,83,0.00,,,0.00,WUHU216HW,2013-01-10 11:36:00,
2013-01-10 06:41:00,19.6,14.9,30.48,East,90,0.0,0.7,82,0.00,,,0.00,WUHU216HW,2013-01-10 11:41:00,
2013-01-10 06:46:00,19.6,14.9,30.48,East,90,0.0,0.0,82,0.00,,,0.00,WUHU216HW,2013-01-10 11:46:00,
2013-01-10 06:51:00,19.4,14.8,30.49,East,90,0.0,0.0,82,0.00,,,0.00,WUHU216HW,2013-01-10 11:51:00,
2013-01-10 06:56:00,19.4,14.8,30.49,East,90,0.0,0.0,82,0.00,,,0.00,WUHU216HW,2013-01-10 11:56:00,
2013-01-10 07:01:00,19.4,14.8,30.49,East,90,0.0,0.0,82,0.00,,,0.00,WUHU216HW,2013-01-10 12:01:00,
2013-01-10 07:06:00,19.3,14.6,30.49,East,90,0.0,0.0,82,0.00,,,0.00,WUHU216HW,2013-01-10 12:06:00,
2013-01-10 07:11:00,19.3,14.6,30.49,East,90,0.0,0.0,82,0.00,,,0.00,WUHU216HW,2013-01-10 12:11:00,
2013-01-10 07:16:00,19.1,14.4,30.49,East,90,0.4,0.4,82,0.00,,,0.00,WUHU216HW,2013-01-10 12:16:00,
2013-01-10 07:21:00,19.1,14.4,30.48,East,90,0.0,0.4,82,0.00,,,0.00,WUHU216HW,2013-01-10 12:21:00,
2013-01-10 07:26:00,19.1,14.4,30.49,East,90,0.2,0.9,82,0.00,,,0.00,WUHU216HW,2013-01-10 12:26:00,
2013-01-10 07:31:00,19.1,14.4,30.49,East,90,0.0,0.9,82,0.00,,,0.00,WUHU216HW,2013-01-10 12:31:00,
2013-01-10 07:36:00,18.9,14.5,30.49,East,90,0.4,0.7,83,0.00,,,0.00,WUHU216HW,2013-01-10 12:36:00,
2013-01-10 07:41:00,18.7,14.0,30.49,East,90,0.0,0.7,82,0.00,,,0.00,WUHU216HW,2013-01-10 12:41:00,
2013-01-10 07:46:00,18.9,14.2,30.49,East,90,0.4,0.4,82,0.00,,,0.00,WUHU216HW,2013-01-10 12:46:00,
2013-01-10 07:51:00,18.7,14.3,30.49,ENE,68,0.2,0.4,83,0.00,,,0.00,WUHU216HW,2013-01-10 12:51:00,
2013-01-10 07:56:00,18.9,14.5,30.50,ENE,68,0.0,0.4,83,0.00,,,0.00,WUHU216HW,2013-01-10 12:56:00,
2013-01-10 08:01:00,18.9,14.5,30.50,ENE,68,0.0,0.2,83,0.00,,,0.00,WUHU216HW,2013-01-10 13:01:00,
2013-01-10 08:06:00,18.9,14.5,30.50,ENE,68,0.0,0.0,83,0.00,,,0.00,WUHU216HW,2013-01-10 13:06:00,
2013-01-10 08:11:00,18.9,14.5,30.50,ENE,68,0.0,0.0,83,0.00,,,0.00,WUHU216HW,2013-01-10 13:11:00,
2013-01-10 08:16:00,18.9,14.5,30.50,ENE,68,0.0,0.0,83,0.00,,,0.00,WUHU216HW,2013-01-10 13:16:00,
2013-01-10 08:21:00,18.7,14.3,30.50,ENE,68,0.0,0.0,83,0.00,,,0.00,WUHU216HW,2013-01-10 13:21:00,
2013-01-10 08:26:00,18.9,14.5,30.50,ENE,68,0.0,0.0,83,0.00,,,0.00,WUHU216HW,2013-01-10 13:26:00,
2013-01-10 08:31:00,18.9,14.5,30.50,ENE,68,0.0,0.0,83,0.00,,,0.00,WUHU216HW,2013-01-10 13:31:00,
2013-01-10 08:36:00,19.1,14.7,30.50,ENE,68,0.0,0.0,83,0.00,,,0.00,WUHU216HW,2013-01-10 13:36:00,
2013-01-10 08:41:00,19.1,14.7,30.51,ENE,68,0.0,0.0,83,0.00,,,0.00,WUHU216HW,2013-01-10 13:41:00,
2013-01-10 08:46:00,19.3,15.1,30.51,ENE,68,0.0,0.0,84,0.00,,,0.00,WUHU216HW,2013-01-10 13:46:00,
2013-01-10 08:51:00,19.4,15.3,30.51,ENE,68,0.0,0.0,84,0.00,,,0.00,WUHU216HW,2013-01-10 13:51:00,
2013-01-10 08:56:00,19.6,15.5,30.51,ENE,68,0.0,0.0,84,0.00,,,0.00,WUHU216HW,2013-01-10 13:56:00,
2013-01-10 09:01:00,19.8,15.7,30.51,ENE,68,0.0,0.0,84,0.00,,,0.00,WUHU216HW,2013-01-10 14:01:00,
2013-01-10 09:06:00,20.2,16.0,30.51,ENE,68,0.0,0.0,84,0.00,,,0.00,WUHU216HW,2013-01-10 14:06:00,
2013-01-10 09:11:00,20.5,16.4,30.51,ENE,68,0.0,0.0,84,0.00,,,0.00,WUHU216HW,2013-01-10 14:11:00,
2013-01-10 09:16:00,20.9,17.0,30.51,ENE,68,0.0,0.0,85,0.00,,,0.00,WUHU216HW,2013-01-10 14:16:00,
2013-01-10 09:21:00,21.2,17.4,30.51,ENE,68,0.4,0.4,85,0.00,,,0.00,WUHU216HW,2013-01-10 14:21:00,
2013-01-10 09:26:00,21.6,18.0,30.51,ENE,68,0.4,0.4,86,0.00,,,0.00,WUHU216HW,2013-01-10 14:26:00,
2013-01-10 09:31:00,22.0,18.1,30.52,ENE,68,0.0,0.4,85,0.00,,,0.00,WUHU216HW,2013-01-10 14:31:00,
2013-01-10 09:36:00,22.7,18.8,30.52,ENE,68,0.0,0.4,85,0.00,,,0.00,WUHU216HW,2013-01-10 14:36:00,
2013-01-10 09:41:00,23.0,19.7,30.52,ENE,68,0.0,0.2,87,0.00,,,0.00,WUHU216HW,2013-01-10 14:41:00,
2013-01-10 09:46:00,23.6,20.3,30.52,ENE,68,0.0,0.0,87,0.00,,,0.00,WUHU216HW,2013-01-10 14:46:00,
2013-01-10 09:51:00,24.1,20.8,30.52,ENE,68,0.0,0.0,87,0.00,,,0.00,WUHU216HW,2013-01-10 14:51:00,
2013-01-10 09:56:00,24.8,21.5,30.52,ENE,68,0.0,0.0,87,0.00,,,0.00,WUHU216HW,2013-01-10 14:56:00,
2013-01-10 10:01:00,25.6,22.5,30.52,NE,45,0.4,0.7,88,0.00,,,0.00,WUHU216HW,2013-01-10 15:01:00,
2013-01-10 10:06:00,26.3,23.2,30.51,NE,45,0.0,0.7,88,0.00,,,0.00,WUHU216HW,2013-01-10 15:06:00,
2013-01-10 10:11:00,27.0,23.6,30.51,NE,45,0.0,0.7,87,0.00,,,0.00,WUHU216HW,2013-01-10 15:11:00,
2013-01-10 10:16:00,27.7,24.3,30.52,NE,45,0.0,0.0,87,0.00,,,0.00,WUHU216HW,2013-01-10 15:16:00,
2013-01-10 10:21:00,28.6,25.2,30.51,NNE,23,0.0,0.0,87,0.00,,,0.00,WUHU216HW,2013-01-10 15:21:00,
2013-01-10 10:26:00,29.7,26.7,30.51,NNE,23,0.0,0.0,88,0.00,,,0.00,WUHU216HW,2013-01-10 15:26:00,
2013-01-10 10:31:00,30.6,27.6,30.51,NE,45,0.0,0.0,88,0.00,,,0.00,WUHU216HW,2013-01-10 15:31:00,
2013-01-10 10:36:00,31.5,28.5,30.51,NE,45,1.1,1.8,88,0.00,,,0.00,WUHU216HW,2013-01-10 15:36:00,
2013-01-10 10:41:00,32.6,29.2,30.51,East,90,1.1,1.8,87,0.00,,,0.00,WUHU216HW,2013-01-10 15:41:00,
2013-01-10 10:46:00,33.5,30.0,30.51,East,90,0.2,1.8,87,0.00,,,0.00,WUHU216HW,2013-01-10 15:46:00,
2013-01-10 10:51:00,34.6,30.7,30.51,East,90,1.1,2.2,86,0.00,,,0.00,WUHU216HW,2013-01-10 15:51:00,
2013-01-10 10:56:00,35.3,30.9,30.50,East,90,1.8,2.2,84,0.00,,,0.00,WUHU216HW,2013-01-10 15:56:00,
2013-01-10 11:01:00,35.6,31.2,30.50,East,90,1.1,2.2,84,0.00,,,0.00,WUHU216HW,2013-01-10 16:01:00,
2013-01-10 11:06:00,36.4,31.7,30.50,East,90,0.4,2.2,83,0.00,,,0.00,WUHU216HW,2013-01-10 16:06:00,
2013-01-10 11:11:00,37.1,32.4,30.49,East,90,1.3,2.2,83,0.00,,,0.00,WUHU216HW,2013-01-10 16:11:00,
2013-01-10 11:16:00,38.2,33.1,30.49,East,90,1.3,2.7,82,0.00,,,0.00,WUHU216HW,2013-01-10 16:16:00,
2013-01-10 11:21:00,39.2,33.7,30.49,ESE,113,1.3,3.6,80,0.00,,,0.00,WUHU216HW,2013-01-10 16:21:00,
2013-01-10 11:26:00,40.1,34.1,30.48,ESE,113,1.8,4.3,79,0.00,,,0.00,WUHU216HW,2013-01-10 16:26:00,
2013-01-10 11:31:00,40.5,33.1,30.48,SE,135,4.0,5.4,75,0.00,,,0.00,WUHU216HW,2013-01-10 16:31:00,
2013-01-10 11:36:00,40.3,32.7,30.48,SE,135,5.6,5.6,74,0.00,,,0.00,WUHU216HW,2013-01-10 16:36:00,
2013-01-10 11:41:00,40.0,32.3,30.47,SE,135,1.6,5.6,74,0.00,,,0.00,WUHU216HW,2013-01-10 16:41:00,
2013-01-10 11:46:00,39.8,31.8,30.47,ESE,113,1.1,5.6,73,0.00,,,0.00,WUHU216HW,2013-01-10 16:46:00,
2013-01-10 11:51:00,39.6,31.0,30.47,SE,135,1.3,4.9,71,0.00,,,0.00,WUHU216HW,2013-01-10 16:51:00,
2013-01-10 11:56:00,40.0,31.6,30.46,East,90,3.8,4.9,72,0.00,,,0.00,WUHU216HW,2013-01-10 16:56:00,
2013-01-10 12:01:00,40.7,32.1,30.46,WSW,248,2.2,4.0,71,0.00,,,0.00,WUHU216HW,2013-01-10 17:01:00,
2013-01-10 12:06:00,41.6,31.4,30.46,SE,135,3.4,8.5,67,0.00,,,0.00,WUHU216HW,2013-01-10 17:06:00,
2013-01-10 12:11:00,42.3,33.3,30.46,SSE,158,2.5,8.5,70,0.00,,,0.00,WUHU216HW,2013-01-10 17:11:00,
2013-01-10 12:16:00,43.2,33.4,30.46,ESE,113,1.8,6.0,68,0.00,,,0.00,WUHU216HW,2013-01-10 17:16:00,
2013-01-10 12:21:00,43.9,32.5,30.45,South,180,5.8,9.4,64,0.00,,,0.00,WUHU216HW,2013-01-10 17:21:00,
2013-01-10 12:26:00,44.3,33.2,30.45,ESE,113,3.4,9.4,65,0.00,,,0.00,WUHU216HW,2013-01-10 17:26:00,
2013-01-10 12:31:00,45.4,33.1,30.45,ESE,113,4.0,6.0,62,0.00,,,0.00,WUHU216HW,2013-01-10 17:31:00,
2013-01-10 12:36:00,45.5,32.0,30.44,SE,135,6.9,7.2,59,0.00,,,0.00,WUHU216HW,2013-01-10 17:36:00,
2013-01-10 12:41:00,45.4,32.3,30.44,SE,135,1.1,7.2,60,0.00,,,0.00,WUHU216HW,2013-01-10 17:41:00,
2013-01-10 12:46:00,45.7,32.2,30.44,ESE,113,5.4,6.9,59,0.00,,,0.00,WUHU216HW,2013-01-10 17:46:00,
2013-01-10 12:51:00,45.7,31.3,30.43,ESE,113,2.5,7.2,57,0.00,,,0.00,WUHU216HW,2013-01-10 17:51:00,
2013-01-10 12:56:00,45.5,30.7,30.43,East,90,3.6,7.6,56,0.00,,,0.00,WUHU216HW,2013-01-10 17:56:00,
2013-01-10 13:01:00,45.0,30.7,30.43,SE,135,3.4,10.5,57,0.00,,,0.00,WUHU216HW,2013-01-10 18:01:00,
2013-01-10 13:06:00,44.8,30.5,30.43,South,180,4.9,10.5,57,0.00,,,0.00,WUHU216HW,2013-01-10 18:06:00,
2013-01-10 13:11:00,45.2,30.8,30.43,SE,135,3.8,6.9,57,0.00,,,0.00,WUHU216HW,2013-01-10 18:11:00,
2013-01-10 13:16:00,45.4,31.0,30.43,SE,135,4.3,6.9,57,0.00,,,0.00,WUHU216HW,2013-01-10 18:16:00,
2013-01-10 13:21:00,44.6,29.9,30.43,SE,135,3.6,6.3,56,0.00,,,0.00,WUHU216HW,2013-01-10 18:21:00,
2013-01-10 13:26:00,44.1,29.3,30.42,West,270,2.2,5.6,56,0.00,,,0.00,WUHU216HW,2013-01-10 18:26:00,
2013-01-10 13:31:00,43.7,29.4,30.42,South,180,1.8,5.6,57,0.00,,,0.00,WUHU216HW,2013-01-10 18:31:00,
2013-01-10 13:36:00,43.6,29.7,30.42,South,180,4.9,6.3,58,0.00,,,0.00,WUHU216HW,2013-01-10 18:36:00,
2013-01-10 13:41:00,43.4,29.5,30.41,SE,135,6.0,6.5,58,0.00,,,0.00,WUHU216HW,2013-01-10 18:41:00,
2013-01-10 13:46:00,43.0,29.2,30.41,SE,135,2.7,6.5,58,0.00,,,0.00,WUHU216HW,2013-01-10 18:46:00,
2013-01-10 13:51:00,42.8,29.4,30.41,SSE,158,2.5,6.0,59,0.00,,,0.00,WUHU216HW,2013-01-10 18:51:00,
2013-01-10 13:56:00,42.5,29.2,30.41,SSE,158,0.9,5.4,59,0.00,,,0.00,WUHU216HW,2013-01-10 18:56:00,
2013-01-10 14:01:00,42.5,29.2,30.40,East,90,1.8,5.8,59,0.00,,,0.00,WUHU216HW,2013-01-10 19:01:00,
2013-01-10 14:06:00,42.3,29.0,30.40,SE,135,4.7,6.0,59,0.00,,,0.00,WUHU216HW,2013-01-10 19:06:00,
2013-01-10 14:11:00,42.3,29.0,30.40,SE,135,4.3,6.0,59,0.00,,,0.00,WUHU216HW,2013-01-10 19:11:00,
2013-01-10 14:16:00,42.1,28.8,30.39,ESE,113,4.0,6.3,59,0.00,,,0.00,WUHU216HW,2013-01-10 19:16:00,
2013-01-10 14:21:00,41.9,28.6,30.39,SW,225,2.7,9.8,59,0.00,,,0.00,WUHU216HW,2013-01-10 19:21:00,
2013-01-10 14:26:00,41.8,28.9,30.39,SE,135,1.6,9.8,60,0.00,,,0.00,WUHU216HW,2013-01-10 19:26:00,
2013-01-10 14:31:00,41.9,29.1,30.39,ESE,113,2.7,5.6,60,0.00,,,0.00,WUHU216HW,2013-01-10 19:31:00,
2013-01-10 14:36:00,41.8,28.9,30.39,SSE,158,0.4,6.0,60,0.00,,,0.00,WUHU216HW,2013-01-10 19:36:00,
2013-01-10 14:41:00,41.8,29.3,30.39,East,90,2.7,6.0,61,0.00,,,0.00,WUHU216HW,2013-01-10 19:41:00,
2013-01-10 14:46:00,41.8,29.3,30.39,NE,45,1.1,4.7,61,0.00,,,0.00,WUHU216HW,2013-01-10 19:46:00,
2013-01-10 14:52:00,41.8,29.3,30.39,SSE,158,3.4,4.7,61,0.00,,,0.00,WUHU216HW,2013-01-10 19:52:00,
2013-01-10 14:57:00,41.6,29.2,30.38,South,180,2.5,5.6,61,0.00,,,0.00,WUHU216HW,2013-01-10 19:57:00,
2013-01-10 15:02:00,41.4,29.0,30.38,SE,135,4.7,5.6,61,0.00,,,0.00,WUHU216HW,2013-01-10 20:02:00,
2013-01-10 15:07:00,41.2,29.2,30.38,SSE,158,2.0,5.6,62,0.00,,,0.00,WUHU216HW,2013-01-10 20:07:00,
2013-01-10 15:12:00,41.0,29.0,30.38,ESE,113,1.8,6.3,62,0.00,,,0.00,WUHU216HW,2013-01-10 20:12:00,
2013-01-10 15:17:00,40.9,28.8,30.38,SE,135,3.1,6.3,62,0.00,,,0.00,WUHU216HW,2013-01-10 20:17:00,
2013-01-10 15:22:00,40.7,28.6,30.38,SSE,158,5.1,5.4,62,0.00,,,0.00,WUHU216HW,2013-01-10 20:22:00,
2013-01-10 15:27:00,40.5,28.9,30.38,SE,135,3.6,5.4,63,0.00,,,0.00,WUHU216HW,2013-01-10 20:27:00,
2013-01-10 15:32:00,40.5,28.9,30.38,ESE,113,2.7,5.1,63,0.00,,,0.00,WUHU216HW,2013-01-10 20:32:00,
2013-01-10 15:37:00,40.3,28.7,30.37,SE,135,3.4,4.9,63,0.00,,,0.00,WUHU216HW,2013-01-10 20:37:00,
2013-01-10 15:42:00,40.3,28.7,30.37,SSE,158,4.5,4.9,63,0.00,,,0.00,WUHU216HW,2013-01-10 20:42:00,
2013-01-10 15:47:00,40.3,28.7,30.37,East,90,3.4,4.5,63,0.00,,,0.00,WUHU216HW,2013-01-10 20:47:00,
2013-01-10 15:52:00,40.3,28.7,30.37,ESE,113,1.8,4.7,63,0.00,,,0.00,WUHU216HW,2013-01-10 20:52:00,
2013-01-10 15:57:00,40.1,28.5,30.36,ESE,113,1.8,8.9,63,0.00,,,0.00,WUHU216HW,2013-01-10 20:57:00,
2013-01-10 16:02:00,40.0,28.4,30.37,SSE,158,2.2,8.9,63,0.00,,,0.00,WUHU216HW,2013-01-10 21:02:00,
2013-01-10 16:07:00,39.6,28.0,30.36,SE,135,1.1,6.5,63,0.00,,,0.00,WUHU216HW,2013-01-10 21:07:00,
2013-01-10 16:12:00,39.4,27.8,30.36,SE,135,0.7,6.5,63,0.00,,,0.00,WUHU216HW,2013-01-10 21:12:00,
2013-01-10 16:17:00,39.4,27.8,30.36,ESE,113,0.7,3.4,63,0.00,,,0.00,WUHU216HW,2013-01-10 21:17:00,
2013-01-10 16:22:00,39.2,27.6,30.36,ESE,113,1.1,5.4,63,0.00,,,0.00,WUHU216HW,2013-01-10 21:22:00,
2013-01-10 16:27:00,39.1,27.5,30.35,SE,135,4.9,5.4,63,0.00,,,0.00,WUHU216HW,2013-01-10 21:27:00,
2013-01-10 16:32:00,38.9,27.6,30.35,ESE,113,2.2,8.1,64,0.00,,,0.00,WUHU216HW,2013-01-10 21:32:00,
2013-01-10 16:37:00,38.7,27.5,30.35,SE,135,1.3,8.1,64,0.00,,,0.00,WUHU216HW,2013-01-10 21:37:00,
2013-01-10 16:42:00,38.5,27.7,30.35,East,90,2.2,6.3,65,0.00,,,0.00,WUHU216HW,2013-01-10 21:42:00,
2013-01-10 16:47:00,38.5,27.7,30.35,SE,135,0.4,5.6,65,0.00,,,0.00,WUHU216HW,2013-01-10 21:47:00,
2013-01-10 16:52:00,38.3,27.5,30.35,SE,135,1.6,5.6,65,0.00,,,0.00,WUHU216HW,2013-01-10 21:52:00,
2013-01-10 16:57:00,38.2,27.7,30.35,ENE,68,1.1,5.6,66,0.00,,,0.00,WUHU216HW,2013-01-10 21:57:00,
2013-01-10 17:02:00,38.0,27.6,30.35,South,180,1.1,6.0,66,0.00,,,0.00,WUHU216HW,2013-01-10 22:02:00,
2013-01-10 17:07:00,37.8,27.5,30.34,East,90,1.3,6.0,66,0.00,,,0.00,WUHU216HW,2013-01-10 22:07:00,
2013-01-10 17:12:00,37.8,27.5,30.34,East,90,3.4,3.8,66,0.00,,,0.00,WUHU216HW,2013-01-10 22:12:00,
2013-01-10 17:17:00,37.6,27.6,30.34,East,90,0.7,4.3,67,0.00,,,0.00,WUHU216HW,2013-01-10 22:17:00,
2013-01-10 17:22:00,37.4,27.5,30.34,SE,135,2.9,4.3,67,0.00,,,0.00,WUHU216HW,2013-01-10 22:22:00,
2013-01-10 17:27:00,37.3,27.3,30.34,NE,45,1.6,3.6,67,0.00,,,0.00,WUHU216HW,2013-01-10 22:27:00,
2013-01-10 17:32:00,37.1,27.2,30.33,ESE,113,2.5,3.4,67,0.00,,,0.00,WUHU216HW,2013-01-10 22:32:00,
2013-01-10 17:37:00,37.1,27.6,30.33,SE,135,2.7,3.8,68,0.00,,,0.00,WUHU216HW,2013-01-10 22:37:00,
2013-01-10 17:42:00,36.9,27.4,30.33,East,90,2.5,4.0,68,0.00,,,0.00,WUHU216HW,2013-01-10 22:42:00,
2013-01-10 17:47:00,36.7,27.6,30.32,East,90,1.8,6.3,69,0.00,,,0.00,WUHU216HW,2013-01-10 22:47:00,
2013-01-10 17:52:00,36.7,27.9,30.32,ESE,113,2.9,6.3,70,0.00,,,0.00,WUHU216HW,2013-01-10 22:52:00,
2013-01-10 17:57:00,36.7,27.9,30.31,South,180,2.0,5.1,70,0.00,,,0.00,WUHU216HW,2013-01-10 22:57:00,
2013-01-10 18:02:00,36.5,27.7,30.31,East,90,2.7,6.5,70,0.00,,,0.00,WUHU216HW,2013-01-10 23:02:00,
2013-01-10 18:07:00,36.5,27.7,30.31,ESE,113,4.0,6.5,70,0.00,,,0.00,WUHU216HW,2013-01-10 23:07:00,
2013-01-10 18:12:00,36.4,27.9,30.31,ESE,113,1.8,4.5,71,0.00,,,0.00,WUHU216HW,2013-01-10 23:12:00,
2013-01-10 18:17:00,36.4,27.9,30.31,SE,135,3.1,5.4,71,0.00,,,0.00,WUHU216HW,2013-01-10 23:17:00,
2013-01-10 18:22:00,36.4,27.9,30.31,ESE,113,1.8,5.4,71,0.00,,,0.00,WUHU216HW,2013-01-10 23:22:00,
2013-01-10 18:28:00,36.4,27.9,30.31,East,90,2.7,5.1,71,0.00,,,0.00,WUHU216HW,2013-01-10 23:28:00,
2013-01-10 18:33:00,36.2,28.0,30.31,ESE,113,2.9,5.1,72,0.00,,,0.00,WUHU216HW,2013-01-10 23:33:00,
2013-01-10 18:38:00,36.2,28.0,30.30,SW,225,2.2,7.2,72,0.00,,,0.00,WUHU216HW,2013-01-10 23:38:00,
2013-01-10 18:43:00,36.2,28.0,30.30,East,90,3.4,7.2,72,0.00,,,0.00,WUHU216HW,2013-01-10 23:43:00,
2013-01-10 18:48:00,36.0,28.2,30.30,East,90,2.0,5.8,73,0.00,,,0.00,WUHU216HW,2013-01-10 23:48:00,
2013-01-10 18:53:00,36.0,28.2,30.30,SE,135,0.7,5.6,73,0.00,,,0.00,WUHU216HW,2013-01-10 23:53:00,
2013-01-10 18:58:00,36.0,28.2,30.30,East,90,2.7,5.6,73,0.00,,,0.00,WUHU216HW,2013-01-10 23:58:00,
2013-01-10 19:03:00,36.0,28.2,30.29,SSE,158,2.7,5.6,73,0.00,,,0.00,WUHU216HW,2013-01-11 00:03:00,
2013-01-10 19:08:00,36.0,28.2,30.29,SE,135,3.6,6.0,73,0.00,,,0.00,WUHU216HW,2013-01-11 00:08:00,
2013-01-10 19:13:00,36.0,28.2,30.29,East,90,4.3,6.0,73,0.00,,,0.00,WUHU216HW,2013-01-11 00:13:00,
2013-01-10 19:18:00,36.0,28.2,30.29,ESE,113,3.8,5.4,73,0.00,,,0.00,WUHU216HW,2013-01-11 00:18:00,
2013-01-10 19:23:00,36.0,28.2,30.29,SE,135,4.9,6.0,73,0.00,,,0.00,WUHU216HW,2013-01-11 00:23:00,
2013-01-10 19:28:00,36.0,28.2,30.29,East,90,4.0,6.3,73,0.00,,,0.00,WUHU216HW,2013-01-11 00:28:00,
2013-01-10 19:33:00,36.0,28.2,30.29,East,90,2.5,6.3,73,0.00,,,0.00,WUHU216HW,2013-01-11 00:33:00,
2013-01-10 19:38:00,36.0,28.2,30.29,SSE,158,3.4,5.1,73,0.00,,,0.00,WUHU216HW,2013-01-11 00:38:00,
2013-01-10 19:43:00,36.0,28.2,30.29,ESE,113,2.5,5.1,73,0.00,,,0.00,WUHU216HW,2013-01-11 00:43:00,
2013-01-10 19:48:00,36.0,28.2,30.28,East,90,1.1,5.8,73,0.00,,,0.00,WUHU216HW,2013-01-11 00:48:00,
2013-01-10 19:53:00,36.0,28.2,30.28,ESE,113,3.6,5.8,73,0.00,,,0.00,WUHU216HW,2013-01-11 00:53:00,
2013-01-10 19:58:00,36.0,28.4,30.28,SE,135,3.8,4.0,74,0.00,,,0.00,WUHU216HW,2013-01-11 00:58:00,
2013-01-10 20:03:00,36.0,28.2,30.28,SSE,158,1.3,4.0,73,0.00,,,0.00,WUHU216HW,2013-01-11 01:03:00,
2013-01-10 20:08:00,36.0,28.4,30.28,SSE,158,4.7,5.4,74,0.00,,,0.00,WUHU216HW,2013-01-11 01:08:00,
2013-01-10 20:13:00,36.0,28.4,30.27,SSE,158,4.5,5.4,74,0.00,,,0.00,WUHU216HW,2013-01-11 01:13:00,
2013-01-10 20:18:00,36.0,28.8,30.27,SE,135,2.5,6.3,75,0.00,,,0.00,WUHU216HW,2013-01-11 01:18:00,
2013-01-10 20:23:00,36.0,28.4,30.28,SE,135,0.2,6.3,74,0.00,,,0.00,WUHU216HW,2013-01-11 01:23:00,
2013-01-10 20:28:00,36.0,28.4,30.27,East,90,2.9,5.4,74,0.00,,,0.00,WUHU216HW,2013-01-11 01:28:00,
2013-01-10 20:33:00,36.0,28.4,30.27,East,90,2.7,5.4,74,0.00,,,0.00,WUHU216HW,2013-01-11 01:33:00,
2013-01-10 20:38:00,36.0,28.8,30.26,ESE,113,2.2,4.7,75,0.00,,,0.00,WUHU216HW,2013-01-11 01:38:00,
2013-01-10 20:43:00,36.0,28.8,30.26,ESE,113,5.6,5.8,75,0.00,,,0.00,WUHU216HW,2013-01-11 01:43:00,
2013-01-10 20:48:00,36.0,28.8,30.26,South,180,1.1,6.9,75,0.00,,,0.00,WUHU216HW,2013-01-11 01:48:00,
2013-01-10 20:53:00,36.0,28.8,30.26,SE,135,2.7,6.9,75,0.00,,,0.00,WUHU216HW,2013-01-11 01:53:00,
2013-01-10 20:58:00,36.0,29.2,30.26,SE,135,2.5,4.0,76,0.00,,,0.00,WUHU216HW,2013-01-11 01:58:00,
2013-01-10 21:03:00,36.0,29.2,30.25,ESE,113,1.1,4.7,76,0.01,,,0.01,WUHU216HW,2013-01-11 02:03:00,
2013-01-10 21:08:00,36.0,29.2,30.25,ESE,113,1.1,4.7,76,0.02,,,0.02,WUHU216HW,2013-01-11 02:08:00,
2013-01-10 21:13:00,35.8,29.3,30.25,SE,135,1.3,4.7,77,0.02,,,0.02,WUHU216HW,2013-01-11 02:13:00,
2013-01-10 21:18:00,35.6,29.1,30.25,SE,135,0.7,4.7,77,0.02,,,0.02,WUHU216HW,2013-01-11 02:18:00,
2013-01-10 21:23:00,35.6,29.4,30.24,SSE,158,0.7,4.9,78,0.02,,,0.02,WUHU216HW,2013-01-11 02:23:00,
2013-01-10 21:28:00,35.6,29.4,30.24,ESE,113,3.4,4.9,78,0.02,,,0.02,WUHU216HW,2013-01-11 02:28:00,
2013-01-10 21:33:00,35.5,29.3,30.23,SE,135,2.9,4.7,78,0.03,,,0.03,WUHU216HW,2013-01-11 02:33:00,
2013-01-10 21:38:00,35.5,29.5,30.22,East,90,4.0,4.9,79,0.04,,,0.04,WUHU216HW,2013-01-11 02:38:00,
2013-01-10 21:44:00,35.3,29.7,30.21,SE,135,4.0,4.9,80,0.06,,,0.06,WUHU216HW,2013-01-11 02:44:00,
2013-01-10 21:49:00,35.3,29.7,30.21,East,90,3.8,5.8,80,0.07,,,0.07,WUHU216HW,2013-01-11 02:49:00,
2013-01-10 21:54:00,35.1,29.8,30.21,North,0,0.0,5.8,81,0.07,,,0.07,WUHU216HW,2013-01-11 02:54:00,
2013-01-10 21:59:00,35.3,30.0,30.20,North,0,0.0,3.8,81,0.07,,,0.07,WUHU216HW,2013-01-11 02:59:00,
2013-01-10 22:04:00,35.3,30.6,30.20,SE,135,1.8,4.5,83,0.06,,,0.07,WUHU216HW,2013-01-11 03:04:00,
2013-01-10 22:09:00,35.3,30.2,30.20,East,90,3.6,4.5,82,0.05,,,0.07,WUHU216HW,2013-01-11 03:09:00,
2013-01-10 22:14:00,35.1,30.1,30.19,ESE,113,2.0,3.6,82,0.06,,,0.08,WUHU216HW,2013-01-11 03:14:00,
2013-01-10 22:19:00,35.1,30.1,30.19,East,90,2.5,3.6,82,0.06,,,0.08,WUHU216HW,2013-01-11 03:19:00,
2013-01-10 22:24:00,35.1,30.4,30.19,ESE,113,4.3,7.6,83,0.06,,,0.08,WUHU216HW,2013-01-11 03:24:00,
2013-01-10 22:29:00,35.1,30.4,30.19,East,90,3.4,7.6,83,0.05,,,0.08,WUHU216HW,2013-01-11 03:29:00,
2013-01-10 22:34:00,35.1,30.4,30.18,East,90,1.3,4.5,83,0.05,,,0.08,WUHU216HW,2013-01-11 03:34:00,
2013-01-10 22:39:00,35.3,30.9,30.18,SSE,158,1.1,5.1,84,0.04,,,0.08,WUHU216HW,2013-01-11 03:39:00,
2013-01-10 22:44:00,35.3,30.9,30.17,ESE,113,3.1,5.1,84,0.02,,,0.08,WUHU216HW,2013-01-11 03:44:00,
2013-01-10 22:49:00,35.3,30.9,30.17,ENE,68,4.0,5.1,84,0.01,,,0.08,WUHU216HW,2013-01-11 03:49:00,
2013-01-10 22:54:00,35.3,30.6,30.17,East,90,2.2,5.1,83,0.01,,,0.08,WUHU216HW,2013-01-11 03:54:00,
2013-01-10 22:59:00,35.3,31.1,30.16,East,90,2.5,6.5,85,0.01,,,0.08,WUHU216HW,2013-01-11 03:59:00,
2013-01-10 23:04:00,35.5,31.1,30.15,East,90,3.8,6.5,84,0.01,,,0.08,WUHU216HW,2013-01-11 04:04:00,
2013-01-10 23:09:00,35.5,31.1,30.15,ESE,113,2.9,5.4,84,0.00,,,0.08,WUHU216HW,2013-01-11 04:09:00,
2013-01-10 23:14:00,35.5,31.1,30.15,ESE,113,4.7,5.4,84,0.00,,,0.08,WUHU216HW,2013-01-11 04:14:00,
2013-01-10 23:19:00,35.5,31.1,30.14,ESE,113,2.9,6.0,84,0.00,,,0.08,WUHU216HW,2013-01-11 04:19:00,
2013-01-10 23:24:00,35.6,31.2,30.14,SE,135,3.4,7.6,84,0.00,,,0.08,WUHU216HW,2013-01-11 04:24:00,
2013-01-10 23:29:00,35.6,31.2,30.14,East,90,2.5,7.6,84,0.00,,,0.08,WUHU216HW,2013-01-11 04:29:00,
2013-01-10 23:34:00,35.6,31.2,30.13,ESE,113,3.8,7.2,84,0.00,,,0.08,WUHU216HW,2013-01-11 04:34:00,
2013-01-10 23:39:00,35.6,31.2,30.13,East,90,2.5,6.0,84,0.01,,,0.09,WUHU216HW,2013-01-11 04:39:00,
2013-01-10 23:44:00,35.6,31.5,30.12,ESE,113,4.5,5.8,85,0.01,,,0.09,WUHU216HW,2013-01-11 04:44:00,
2013-01-10 23:49:00,35.6,31.5,30.12,SE,135,3.6,5.6,85,0.01,,,0.09,WUHU216HW,2013-01-11 04:49:00,
2013-01-10 23:54:00,35.6,31.2,30.12,South,180,5.1,5.6,84,0.01,,,0.09,WUHU216HW,2013-01-11 04:54:00,
2013-01-10 23:59:00,35.6,31.2,30.12,ESE,113,2.5,6.9,84,0.01,,,0.09,WUHU216HW,2013-01-11 04:59:00,